Weather History for Campo, CA

Change the Weather History Date:

Sunday, December 15, 2013

  Actual Average Record
Temperature  
Mean Temperature 61 °F 47 °F  
Max Temperature 67 °F 62 °F 80 °F (1969)
Min Temperature 54 °F 32 °F 19 °F (1987)
Degree Days  
Heating Degree Days 4 18  
Month to date heating degree days 295 256  
Since 1 July heating degree days 924 826  
Cooling Degree Days 0 0  
Month to date cooling degree days 0 0  
Year to date cooling degree days 909 841  
Growing Degree Days 10 (Base 50)    
Moisture  
Dew Point 13 °F    
Average Humidity 15    
Maximum Humidity 18    
Minimum Humidity 11    
Precipitation  
Precipitation 0.00 in 0.08 in 1.77 in (2008)
Month to date precipitation 0.28 1.00  
Year to date precipitation 8.70 14.46  
Since 1 July precipitation 3.92 4.31  
Snow  
Snow 0.00 in - - ()
Month to date snowfall 0.0  
Year to date snowfall 0.0  
Since 1 July snowfall 0.0  
Snow Depth 0.00 in    
Sea Level Pressure  
Sea Level Pressure 30.11 in    
Wind  
Wind Speed 21 mph (NE)    
Max Wind Speed 35 mph    
Max Gust Speed 52 mph    
T = Trace of Precipitation, MM = Missing Value Source: NWS Daily Summary

Daily Weather History Graph

Daily Weather History Graph

Search for Another Location

Airport:

Trip Planner

Search our weather history database for the weather conditions in past years. The results will help you decide how hot, cold, wet, or windy it might be!

Date:

Astronomy

Dec. 15, 2013 Rise Set
Actual Time 6:40 AM PST 4:41 PM PST
Civil Twilight 6:13 AM PST 5:09 PM PST
Nautical Twilight 5:42 AM PST 5:39 PM PST
Astronomical Twilight 5:12 AM PST 6:09 PM PST
Moon 3:46 PM PST (12/15) 5:04 AM PST (12/15)
Length of Visible Light 10h 55m
Length of Day
10h 01m
Waxing Gibbous, 98% of the Moon is Illuminated
Dec 15
Waxing Gibbous
Dec 17
Full
Dec 25
Last Quarter
Jan 1
New
Jan 7
First Quarter

Hourly Weather History & Observations

Time (PST) Temp. Dew Point Humidity Pressure Visibility Wind Dir Wind Speed Gust Speed Precip Events Conditions
12:52 AM 55.0 °F 12.0 °F 18% 30.17 in - NE 20.7 mph 36.8 mph N/A   Unknown
1:52 AM 55.9 °F 10.9 °F 17% 30.15 in - NE 24.2 mph 35.7 mph N/A   Unknown
2:52 AM 55.0 °F 10.9 °F 17% 30.13 in - NE 27.6 mph 35.7 mph N/A   Unknown
3:52 AM 55.0 °F 10.9 °F 17% 30.12 in - NE 27.6 mph 40.3 mph N/A   Unknown
4:52 AM 55.0 °F 10.9 °F 17% 30.12 in - NE 26.5 mph 39.1 mph N/A   Unknown
5:52 AM 55.0 °F 12.0 °F 18% 30.14 in - NE 24.2 mph 38.0 mph N/A   Unknown
6:52 AM 55.0 °F 12.0 °F 18% 30.14 in - NE 24.2 mph 34.5 mph N/A   Unknown
7:52 AM 57.0 °F 12.9 °F 18% 30.16 in - NE 18.4 mph 27.6 mph N/A   Unknown
8:52 AM 60.1 °F 14.0 °F 16% 30.17 in - NE 17.3 mph - N/A   Unknown
9:52 AM 64.0 °F 15.1 °F 15% 30.16 in - East 16.1 mph - N/A   Unknown
10:52 AM 64.9 °F 10.9 °F 12% 30.13 in - NE 19.6 mph 25.3 mph N/A   Unknown
11:52 AM 66.0 °F 10.9 °F 12% 30.11 in - NE 20.7 mph 31.1 mph N/A   Unknown
12:52 PM 66.0 °F 12.0 °F 12% 30.09 in - NE 16.1 mph 28.8 mph N/A   Unknown
1:52 PM 66.9 °F 10.9 °F 11% 30.06 in - NE 24.2 mph 33.4 mph N/A   Unknown
2:52 PM 66.0 °F 10.9 °F 12% 30.05 in - NE 15.0 mph 25.3 mph N/A   Unknown
3:52 PM 64.9 °F 10.0 °F 12% 30.05 in - NE 18.4 mph 25.3 mph N/A   Unknown
4:52 PM 62.1 °F 12.0 °F 14% 30.07 in - NE 15.0 mph 23.0 mph N/A   Unknown
5:52 PM 62.1 °F 12.9 °F 15% 30.09 in - NE 12.7 mph 19.6 mph N/A   Unknown
6:52 PM 62.1 °F 14.0 °F 15% 30.09 in - NE 18.4 mph 23.0 mph N/A   Unknown
7:52 PM 62.1 °F 15.1 °F 16% 30.10 in - Variable 6.9 mph - N/A   Unknown
8:52 PM 63.0 °F 15.1 °F 16% 30.09 in - Variable 5.8 mph 17.3 mph N/A   Unknown
9:52 PM 64.0 °F 16.0 °F 16% 30.09 in - North 13.8 mph 25.3 mph N/A   Unknown
10:52 PM 63.0 °F 16.0 °F 16% 30.07 in - NE 12.7 mph 16.1 mph N/A   Unknown
11:52 PM 64.0 °F 16.0 °F 16% 30.08 in - Variable 6.9 mph - N/A   Unknown